Regional Weather Roundup
Issued by NWS

Home | Current Version | Previous Version | Text Only | Print | Product List | Glossary On
Versions: 1 2 3 4 5 6 7 8 9 10 11 12 13 14 15 16 17 18 19 20 21 22 23 24 25 26 27 28 29 30 31 32 33 34 35 36 37 38 39 40 41 42 43 44 45 46 47 48 49 50
000
ASUS43 KLMK 291910
RWRKY
KENTUCKY REGIONAL WEATHER ROUNDUP
NATIONAL WEATHER SERVICE LOUISVILLE KY
300 PM EDT MON AUG 29 2016

NOTE "FAIR" INDICATES FEW OR NO CLOUDS BELOW 12,000 FEET
WITH NO SIGNIFICANT WEATHER AND/OR OBSTRUCTIONS TO VISIBILITY.

KYZ001>023-026-027-061>063-070>075-292000-
WESTERN AND SOUTH CENTRAL KENTUCKY

CITY           SKY/WX    TMP DP  RH WIND       PRES   REMARKS
PADUCAH        SUNNY     91  75  59 N9        30.14F HX 101
HENDERSON      SUNNY     90  72  55 NE9       30.15F HX  96
OWENSBORO      SUNNY     91  73  55 E8        30.16F HX  99
HOPKINSVILLE   SUNNY     89  73  58 NE6       30.14F HX  97
BOWLING GREEN  PTSUNNY   90  74  59 NE7       30.16F HX  99
GLASGOW        SUNNY     88  72  58 NE3       30.16F HX  95
$$

KYZ024-025-028>034-038-045-046-053-292000-
NORTH CENTRAL KENTUCKY

CITY           SKY/WX    TMP DP  RH WIND       PRES   REMARKS
LOUISVILLE/SDF MOSUNNY   92  68  45 N9        30.17F HX  96
LOUISVILLE/LOU SUNNY     92  68  45 VRB3      30.18F HX  96
FORT KNOX      SUNNY     89  71  55 N8        30.17F HX  94
$$

KYZ035>037-039>044-047>052-055>060-089>105-292000-
NORTHEAST KENTUCKY

CITY           SKY/WX    TMP DP  RH WIND       PRES   REMARKS
LEXINGTON      MOSUNNY   91  72  53 NE7       30.20F HX  98
COVINGTON      MOSUNNY   89  71  55 E6        30.21F HX  95
FRANKFORT      MOSUNNY   91  70  49 VRB5      30.18F HX  96
$$

KYZ054-064>069-076>088-106>120-292000-
SOUTHEAST KENTUCKY

CITY           SKY/WX    TMP DP  RH WIND       PRES   REMARKS
JACKSON        PTSUNNY   85  73  67 CALM      30.20F HX  91
LONDON         PTSUNNY   87  70  56 VRB5      30.19F HX  92
SOMERSET       SUNNY     88  68  51 NE3       30.18F HX  91
MIDDLESBORO    PTSUNNY   88  69  53 NE5       30.18F HX  91
MONTICELLO     CLEAR    N/A N/A N/A N14G25    30.19F
$$





USA.gov is the U.S. government's official web portal to all federal, state and local government web resources and services.